TimeCDT,TemperatureF,Dew PointF,Humidity,Sea Level PressureIn,VisibilityMPH,Wind Direction,Wind SpeedMPH,Gust SpeedMPH,PrecipitationIn,Events,Conditions,WindDirDegrees,DateUTC
12:13 AM,68.0,52.0,56,30.13,10.0,North,3.5,-,N/A,,Overcast,350,2013-08-10 05:13:00
12:33 AM,68.0,52.9,58,30.13,10.0,North,4.6,-,N/A,,Overcast,360,2013-08-10 05:33:00
12:53 AM,68.0,53.1,59,30.13,10.0,North,4.6,-,N/A,,Overcast,10,2013-08-10 05:53:00
1:13 AM,68.0,53.2,59,30.13,10.0,NE,3.5,-,N/A,,Overcast,40,2013-08-10 06:13:00
1:33 AM,67.3,52.7,59,30.13,10.0,Calm,Calm,-,N/A,,Overcast,0,2013-08-10 06:33:00
1:53 AM,67.5,52.2,58,30.13,10.0,Calm,Calm,-,N/A,,Overcast,0,2013-08-10 06:53:00
2:13 AM,67.5,52.7,59,30.14,10.0,Calm,Calm,-,N/A,,Overcast,0,2013-08-10 07:13:00
2:33 AM,67.3,53.8,62,30.14,10.0,Calm,Calm,-,N/A,,Overcast,0,2013-08-10 07:33:00
2:53 AM,66.6,55.6,68,30.15,10.0,Calm,Calm,-,N/A,,Overcast,0,2013-08-10 07:53:00
3:13 AM,66.4,55.4,68,30.16,10.0,Calm,Calm,-,N/A,,Overcast,0,2013-08-10 08:13:00
3:33 AM,66.2,55.2,68,30.16,10.0,Calm,Calm,-,N/A,,Overcast,0,2013-08-10 08:33:00
3:53 AM,66.4,56.1,69,30.16,10.0,Calm,Calm,-,N/A,,Overcast,0,2013-08-10 08:53:00
4:13 AM,66.2,56.5,71,30.16,10.0,Calm,Calm,-,N/A,,Overcast,0,2013-08-10 09:13:00
4:33 AM,65.7,56.5,72,30.17,10.0,Calm,Calm,-,N/A,,Overcast,0,2013-08-10 09:33:00
4:53 AM,65.5,55.6,70,30.17,10.0,Calm,Calm,-,N/A,,Mostly Cloudy,0,2013-08-10 09:53:00
5:13 AM,64.8,55.9,73,30.17,10.0,Calm,Calm,-,N/A,,Mostly Cloudy,0,2013-08-10 10:13:00
5:33 AM,63.9,57.0,78,30.17,10.0,Calm,Calm,-,N/A,,Scattered Clouds,0,2013-08-10 10:33:00
5:53 AM,63.3,56.5,78,30.17,10.0,Calm,Calm,-,N/A,,Mostly Cloudy,0,2013-08-10 10:53:00
6:13 AM,62.6,57.4,83,30.17,10.0,Calm,Calm,-,N/A,,Overcast,0,2013-08-10 11:13:00
6:33 AM,63.1,56.7,79,30.17,10.0,Calm,Calm,-,N/A,,Overcast,0,2013-08-10 11:33:00
6:53 AM,63.9,55.6,74,30.18,10.0,Calm,Calm,-,N/A,,Mostly Cloudy,0,2013-08-10 11:53:00
7:13 AM,64.8,54.3,69,30.18,10.0,NNW,3.5,-,N/A,,Mostly Cloudy,340,2013-08-10 12:13:00
7:33 AM,65.3,53.8,66,30.18,10.0,North,3.5,-,N/A,,Scattered Clouds,360,2013-08-10 12:33:00
7:53 AM,66.0,54.1,65,30.18,10.0,NNE,3.5,-,N/A,,Clear,20,2013-08-10 12:53:00
8:13 AM,66.9,54.0,63,30.18,10.0,North,3.5,-,N/A,,Clear,350,2013-08-10 13:13:00
8:33 AM,67.6,53.1,59,30.18,10.0,WNW,3.5,-,N/A,,Clear,300,2013-08-10 13:33:00
8:53 AM,68.5,53.1,58,30.18,10.0,WNW,3.5,-,N/A,,Clear,290,2013-08-10 13:53:00
9:13 AM,69.3,53.4,57,30.18,10.0,WNW,4.6,-,N/A,,Clear,300,2013-08-10 14:13:00
9:33 AM,69.4,53.1,56,30.18,10.0,West,5.8,-,N/A,,Clear,280,2013-08-10 14:33:00
9:53 AM,69.8,53.6,56,30.18,10.0,WNW,3.5,-,N/A,,Clear,290,2013-08-10 14:53:00
10:13 AM,69.8,52.0,53,30.18,10.0,NNW,3.5,-,N/A,,Clear,340,2013-08-10 15:13:00
10:33 AM,71.4,51.6,50,30.19,10.0,WNW,6.9,-,N/A,,Clear,290,2013-08-10 15:33:00
10:53 AM,72.3,51.6,48,30.19,10.0,West,6.9,-,N/A,,Clear,260,2013-08-10 15:53:00
11:13 AM,72.5,49.1,44,30.19,10.0,Calm,Calm,-,N/A,,Scattered Clouds,0,2013-08-10 16:13:00
11:33 AM,72.3,49.1,44,30.19,10.0,NNW,5.8,-,N/A,,Overcast,340,2013-08-10 16:33:00
11:53 AM,72.3,48.9,43,30.18,10.0,West,4.6,-,N/A,,Overcast,260,2013-08-10 16:53:00
12:13 PM,72.3,48.9,43,30.18,10.0,WSW,4.6,-,N/A,,Mostly Cloudy,240,2013-08-10 17:13:00
12:33 PM,72.5,48.2,42,30.18,10.0,NNW,3.5,-,N/A,,Mostly Cloudy,330,2013-08-10 17:33:00
12:53 PM,74.5,48.6,40,30.17,10.0,NNE,6.9,-,N/A,,Scattered Clouds,30,2013-08-10 17:53:00
1:13 PM,74.3,48.6,40,30.18,10.0,NNW,3.5,-,N/A,,Mostly Cloudy,340,2013-08-10 18:13:00
1:33 PM,73.4,48.0,41,30.18,10.0,West,3.5,-,N/A,,Mostly Cloudy,270,2013-08-10 18:33:00
1:53 PM,73.9,47.3,39,30.17,10.0,Calm,Calm,-,N/A,,Overcast,0,2013-08-10 18:53:00
2:13 PM,74.3,49.3,41,30.17,10.0,NE,3.5,-,N/A,,Overcast,40,2013-08-10 19:13:00
2:33 PM,76.1,48.4,38,30.17,10.0,NW,4.6,-,N/A,,Overcast,310,2013-08-10 19:33:00
2:53 PM,75.7,48.2,38,30.16,10.0,SW,3.5,-,N/A,,Mostly Cloudy,230,2013-08-10 19:53:00
3:13 PM,74.7,48.0,39,30.16,10.0,NNW,4.6,-,N/A,,Scattered Clouds,340,2013-08-10 20:13:00
3:33 PM,76.5,49.3,38,30.15,10.0,NE,4.6,17.3,N/A,,Scattered Clouds,50,2013-08-10 20:33:00
3:53 PM,76.3,49.5,39,30.15,10.0,Calm,Calm,-,N/A,,Mostly Cloudy,0,2013-08-10 20:53:00
4:13 PM,76.8,50.2,39,30.15,10.0,NW,5.8,-,N/A,,Mostly Cloudy,310,2013-08-10 21:13:00
4:33 PM,75.9,49.3,39,30.14,10.0,WNW,5.8,-,N/A,,Scattered Clouds,300,2013-08-10 21:33:00
4:53 PM,75.7,48.7,38,30.14,10.0,Calm,Calm,-,N/A,,Clear,0,2013-08-10 21:53:00
5:13 PM,75.6,48.6,38,30.14,10.0,SW,4.6,-,N/A,,Clear,220,2013-08-10 22:13:00
5:33 PM,75.2,48.7,39,30.14,10.0,SW,3.5,-,N/A,,Mostly Cloudy,230,2013-08-10 22:33:00
5:53 PM,75.7,49.5,40,30.13,10.0,West,4.6,-,N/A,,Scattered Clouds,270,2013-08-10 22:53:00
6:13 PM,74.8,49.8,41,30.13,10.0,WNW,4.6,-,N/A,,Clear,290,2013-08-10 23:13:00
6:33 PM,75.4,49.5,40,30.12,10.0,WSW,3.5,-,N/A,,Scattered Clouds,250,2013-08-10 23:33:00
6:53 PM,75.2,50.5,42,30.12,10.0,West,3.5,-,N/A,,Scattered Clouds,280,2013-08-10 23:53:00
7:13 PM,74.7,50.0,42,30.11,10.0,Calm,Calm,-,N/A,,Clear,0,2013-08-11 00:13:00
7:33 PM,74.3,50.7,43,30.11,10.0,Calm,Calm,-,N/A,,Clear,0,2013-08-11 00:33:00
7:53 PM,73.8,51.4,45,30.11,10.0,Calm,Calm,-,N/A,,Clear,0,2013-08-11 00:53:00
8:13 PM,73.4,53.2,49,30.10,10.0,Calm,Calm,-,N/A,,Clear,0,2013-08-11 01:13:00
8:33 PM,72.3,55.6,56,30.10,10.0,Calm,Calm,-,N/A,,Clear,0,2013-08-11 01:33:00
8:53 PM,71.6,53.8,53,30.10,10.0,Calm,Calm,-,N/A,,Clear,0,2013-08-11 01:53:00
9:13 PM,71.2,52.2,51,30.10,10.0,ESE,3.5,-,N/A,,Clear,110,2013-08-11 02:13:00
9:33 PM,70.3,54.9,58,30.10,10.0,Calm,Calm,-,N/A,,Clear,0,2013-08-11 02:33:00
9:53 PM,70.3,52.7,53,30.10,10.0,Calm,Calm,-,N/A,,Clear,0,2013-08-11 02:53:00
10:13 PM,69.8,54.5,58,30.10,10.0,Calm,Calm,-,N/A,,Clear,0,2013-08-11 03:13:00
10:33 PM,69.3,54.9,60,30.10,10.0,Calm,Calm,-,N/A,,Clear,0,2013-08-11 03:33:00
10:53 PM,68.5,54.9,62,30.10,10.0,Calm,Calm,-,N/A,,Clear,0,2013-08-11 03:53:00
11:13 PM,68.0,55.6,64,30.11,10.0,Calm,Calm,-,N/A,,Scattered Clouds,0,2013-08-11 04:13:00
11:33 PM,67.3,57.0,70,30.11,10.0,Calm,Calm,-,N/A,,Mostly Cloudy,0,2013-08-11 04:33:00
11:53 PM,68.4,54.0,60,30.10,10.0,Calm,Calm,-,N/A,,Mostly Cloudy,0,2013-08-11 04:53:00